Rifle, CO

12:29 PM MST on February 23, 2018 (GMT -0700)
Garfield County Regional

Weather History for KRIL - November, 2013

Change the Weather History Date:

Tuesday, November 5, 2013

  Actual Average Record
Temperature  
Mean Temperature 31 °F 40 °F  
Max Temperature 39 °F 54 °F 78 °F (1934)
Min Temperature 22 °F 27 °F 2 °F (1933)
Degree Days  
Heating Degree Days 34 25  
Month to date heating degree days 135 119  
Since 1 July heating degree days 813 763  
Cooling Degree Days 0 0  
Month to date cooling degree days 0 0  
Year to date cooling degree days 798 541  
Moisture  
Dew Point 16 °F    
Average Humidity 58    
Maximum Humidity 92    
Minimum Humidity 23    
Precipitation  
Precipitation T in 0.05 in 0.46 in (1957)
Month to date precipitation 0.03 0.27  
Year to date precipitation 10.08 12.63  
Sea Level Pressure  
Sea Level Pressure 30.22 in    
Wind  
Wind Speed 8 mph (West)    
Max Wind Speed 17 mph    
Max Gust Speed 24 mph    
Visibility 10 miles    
Events Snow    
T = Trace of Precipitation, MM = Missing Value Source: NWS Daily Summary

Daily Weather History Graph

Daily Weather History Graph

Search for Another Location

Airport or City:

Trip Planner

Search our weather history database for the weather conditions in past years. The results will help you decide how hot, cold, wet, or windy it might be!

Date:

Astronomy

Nov. 05, 2013 Rise Set
Actual Time 6:44 AM MST 5:04 PM MST
Civil Twilight 6:15 AM MST 5:32 PM MST
Nautical Twilight 5:43 AM MST 6:04 PM MST
Astronomical Twilight 5:12 AM MST 6:36 PM MST
Moon 9:01 AM MST (11/5) 7:09 PM MST (11/5)
Length of Visible Light 11h 16m
Length of Day
10h 20m
Waxing Crescent, 7% of the Moon is Illuminated
Nov 5
Waxing Crescent
Nov 9
First Quarter
Nov 17
Full
Nov 25
Last Quarter
Dec 2
New

Hourly Weather History & Observations

Time (MST) Temp. Windchill Dew Point Humidity Pressure Visibility Wind Dir Wind Speed Gust Speed Precip Events Conditions
12:53 AM 30.0 °F 20.0 °F 28.0 °F 92% 30.02 in 6.0 mi West 12.7 mph - 0.00 in Snow Light Snow
1:53 AM 30.0 °F 22.4 °F 27.0 °F 88% 30.04 in 8.0 mi West 8.1 mph - 0.00 in Snow Light Snow
2:53 AM 30.0 °F 18.7 °F 19.0 °F 64% 30.05 in 10.0 mi WNW 16.1 mph - 0.00 in   Overcast
3:53 AM 30.0 °F 21.1 °F 21.9 °F 72% 30.06 in 10.0 mi West 10.4 mph - N/A   Overcast
4:53 AM 28.0 °F 20.8 °F 23.0 °F 81% 30.09 in 10.0 mi WSW 6.9 mph - N/A   Overcast
5:53 AM 28.9 °F 20.4 °F 21.0 °F 72% 30.10 in 10.0 mi West 9.2 mph - N/A   Overcast
6:53 AM 28.0 °F 20.0 °F 21.9 °F 78% 30.14 in 10.0 mi West 8.1 mph - N/A   Overcast
7:53 AM 30.0 °F 22.4 °F 21.9 °F 72% 30.17 in 10.0 mi West 8.1 mph - N/A   Mostly Cloudy
8:53 AM 32.0 °F 22.1 °F 15.1 °F 50% 30.20 in 10.0 mi WNW 13.8 mph - N/A   Clear
9:53 AM 34.0 °F 25.5 °F 14.0 °F 44% 30.21 in 10.0 mi WNW 11.5 mph 17.3 mph N/A   Clear
10:53 AM 36.0 °F 27.1 °F 12.9 °F 39% 30.21 in - NW 13.8 mph 19.6 mph N/A   Clear
11:53 AM 37.0 °F 28.9 °F 10.0 °F 33% 30.21 in 10.0 mi West 12.7 mph 19.6 mph N/A   Clear
12:53 PM 37.0 °F 31.0 °F 7.0 °F 29% 30.20 in 10.0 mi WSW 8.1 mph 16.1 mph N/A   Clear
1:53 PM 39.0 °F 32.8 °F 7.0 °F 27% 30.19 in 10.0 mi North 9.2 mph - N/A   Clear
2:53 PM 39.0 °F - 5.0 °F 24% 30.20 in 10.0 mi Calm Calm - N/A   Clear
3:53 PM 37.9 °F 30.9 °F 8.1 °F 29% 30.23 in 10.0 mi NW 10.4 mph - N/A   Clear
4:53 PM 35.1 °F 30.1 °F 9.0 °F 34% 30.27 in 10.0 mi NNW 5.8 mph - N/A   Clear
5:53 PM 30.9 °F 26.2 °F 12.9 °F 47% 30.31 in 10.0 mi SW 4.6 mph - N/A   Clear
6:53 PM 30.0 °F 25.2 °F 14.0 °F 51% 30.34 in 10.0 mi South 4.6 mph - N/A   Clear
7:53 PM 26.1 °F 18.4 °F 17.1 °F 69% 30.36 in 10.0 mi SSE 6.9 mph - N/A   Clear
8:53 PM 25.0 °F - 15.1 °F 66% 30.39 in 10.0 mi Calm Calm - N/A   Clear
9:53 PM 23.0 °F 17.0 °F 15.1 °F 72% 30.41 in 10.0 mi SE 4.6 mph - N/A   Clear
10:53 PM 23.0 °F - 12.0 °F 63% 30.42 in 10.0 mi Calm Calm - N/A   Clear
11:53 PM 23.0 °F - 14.0 °F 68% 30.42 in 10.0 mi Calm Calm - N/A   Clear